This is the latest recevied weather packets stored in our database for station/object KB2SKP. If no packets are shown the sender has not sent any weather packets the latest 10 day(s).
| Time | Temp. | Humidity | Pressure | Rain* | Wind** | Luminosity | Snow |
|---|---|---|---|---|---|---|---|
| 1777662327 | 18.33° C | 41% | 1009.6 hPa | 0 mm | - | 41 W/m² | - |
| 1777662023 | 17.78° C | 39% | 1009.6 hPa | 0 mm | - | 41 W/m² | - |
| 1777661719 | 17.78° C | 40% | 1009.6 hPa | 0 mm | - | 51 W/m² | - |
| 1777661415 | 17.78° C | 42% | 1009.6 hPa | 0 mm | - | 41 W/m² | - |
| 1777661112 | 17.22° C | 42% | 1009.7 hPa | 0 mm | - | 39 W/m² | - |
| 1777660806 | 17.78° C | 37% | 1010.2 hPa | 0 mm | - | 52 W/m² | - |
| 1777660504 | 17.22° C | 42% | 1010 hPa | 0 mm | - | 93 W/m² | - |
| 1777660199 | 17.22° C | 40% | 1010.3 hPa | 0 mm | - | 53 W/m² | - |
| 1777659897 | 16.67° C | 41% | 1010.3 hPa | 0 mm | - | 58 W/m² | - |
| 1777659593 | 17.22° C | 42% | 1010.3 hPa | 0 mm | - | 39 W/m² | - |
| 1777659291 | 16.67° C | 44% | 1010.2 hPa | 0 mm | - | 87 W/m² | - |
| 1777658988 | 16.67° C | 43% | 1010.2 hPa | 0 mm | - | 89 W/m² | - |
| 1777658685 | 16.67° C | 44% | 1010.6 hPa | 0 mm | - | 50 W/m² | - |
| 1777658380 | 16.11° C | 44% | 1010.3 hPa | 0 mm | - | 255 W/m² | - |
| 1777658078 | 16.67° C | 44% | 1010.4 hPa | 0 mm | - | 56 W/m² | - |
| 1777657774 | 16.67° C | 44% | 1010.3 hPa | 0 mm | - | 112 W/m² | - |
| 1777657472 | 16.67° C | 46% | 1010.5 hPa | 0 mm | - | 35 W/m² | - |
| 1777657169 | 17.22° C | 44% | 1010.2 hPa | 0 mm | - | 44 W/m² | - |
| 1777656867 | 17.22° C | 44% | 1010.4 hPa | 0 mm | - | 34 W/m² | - |
| 1777656563 | 17.22° C | 44% | 1010.4 hPa | 0 mm | - | 34 W/m² | - |
| 1777656258 | 16.67° C | 44% | 1010.7 hPa | 0 mm | - | 35 W/m² | - |
| 1777655954 | 16.67° C | 41% | 1010.3 hPa | 0 mm | - | 35 W/m² | - |
| 1777655650 | 16.67° C | 38% | 1010.5 hPa | 0 mm | - | 34 W/m² | - |
| 1777655347 | 16.67° C | 39% | 1010.7 hPa | 0 mm | - | 34 W/m² | - |
| 1777655044 | 16.67° C | 39% | 1010.5 hPa | 0 mm | - | 53 W/m² | - |
* Rain latest hour (hover to see other rain measurements)
** Current wind speed in m/s (hover to see current wind gust speed)